Weather in Nyalinskoye

Russia / Khanty-Mansi Autonomous Okrug — Yugra     61°17′22″N   69°33′34″E
temp.,
°C
wind,
m/s
gust,
m/s
humid.,
%
clouds,
%
prec.,
mm/h
press.,
hPa
HPBL,
m
14 april, wed
wed1423:00+3wsw61285100 0.0 1024189
02:00+3sw61287100 0.0 1021191
05:00+4w61287100 0.0 1020248
08:00+3w5997100 1.9 1020199
11:00+4w479899 1.9 1022196
14:00+6w4696100 0.0 1023320
17:00+7sw4695100 0.0 1022123
20:00+5sw5795100 0.0 1021100
15 april, thu
thu1523:00+6sw6119395 0.0 1018171
02:00+5sw6109094 0.0 1016128
05:00+4sw7129238 0.0 1015164
08:00+7sw8168744 0.0 1013380
11:00+13wsw1016635 0.0 1011764
14:00+15w1014585 0.0 10101221
17:00+13wnw91366100 0.1 1010909
20:00+5n5890100 0.2 1013713
16 april, fri
fri1623:00+4nw4795100 1.3 1013751
02:00+1nw4870100 1.0 1014327
05:000nnw91170100 1.0 1017856
08:00−4n91159100 0.0 10221170
11:00−3n9104198 0.0 10251661
14:00−2n68355 0.0 10271676
17:00−1nne44330 0.0 10271325
20:00−3se234219 0.0 1027100
17 april, sat
sat1723:00−3s6846100 0.0 1025427
02:00−3ssw91345100 0.0 1021686
05:00−3ssw111648100 0.0 1016892
08:00−3sw121786100 0.9 1012995
11:00+1w101284100 1.6 10091145
14:00−2nnw12144614 0.9 10141511
17:00−4nnw111348100 0.9 10161829
20:00−7nnw913515 0.0 10181336
18 april, sun
sun1823:00−8nnw913500 0.0 10181054
02:00−10nnw913510 0.0 1019964
05:00−10nnw913550 0.0 10201006
08:00−9n1013505 0.0 10211145
11:00−6n10134096 0.0 10221678
14:00−5n111338100 0.0 10232031
17:00−5n101341100 0.0 10252131
20:00−6n712515 0.0 10271581